Weather History for PHNL - February, 2013

Change the Weather History Date:

Monday, February 11, 2013

  Actual Average Record
Temperature  
Mean Temperature 75 °F 73 °F  
Max Temperature 79 °F 80 °F 88 °F (1984)
Min Temperature 70 °F 66 °F 53 °F (1903)
Degree Days  
Heating Degree Days 0 0  
Month to date heating degree days 0 0  
Since 1 July heating degree days 0 0  
Cooling Degree Days 10 8  
Month to date cooling degree days 109 88  
Year to date cooling degree days 328 342  
Growing Degree Days 24 (Base 50)    
Moisture  
Dew Point 62 °F    
Average Humidity 68    
Maximum Humidity 78    
Minimum Humidity 58    
Precipitation  
Precipitation T in 0.07 in 2.48 in (1989)
Month to date precipitation T 0.70  
Year to date precipitation 2.42 3.01  
Snow  
Snow 0.00 in - - ()
Month to date snowfall 0.0  
Since 1 July snowfall 0.0  
Snow Depth 0.00 in    
Sea Level Pressure  
Sea Level Pressure 30.19 in    
Wind  
Wind Speed 10 mph (NE)    
Max Wind Speed 25 mph    
Max Gust Speed 31 mph    
Visibility 10 miles    
Events      
T = Trace of Precipitation, MM = Missing Value Source: NWS Daily Summary

Daily Weather History Graph

Daily Weather History Graph

Search for Another Location

Airport or City:

Trip Planner

Search our weather history database for the weather conditions in past years. The results will help you decide how hot, cold, wet, or windy it might be!

Date:

Astronomy

Feb. 11, 2013 Rise Set
Actual Time 7:04 AM HST 6:27 PM HST
Civil Twilight 6:41 AM HST 6:50 PM HST
Nautical Twilight 6:15 AM HST 7:16 PM HST
Astronomical Twilight 5:49 AM HST 7:43 PM HST
Moon 7:54 AM HST (2/11) 8:13 PM HST (2/11)
Length of Visible Light 12h 09m
Length of Day
11h 23m
Waxing Crescent, 3% of the Moon is Illuminated
Feb 11
Waxing Crescent
Feb 17
First Quarter
Feb 25
Full
Mar 4
Last Quarter
Mar 11
New

Hourly Weather History & Observations

Time (HST) Temp. Dew Point Humidity Pressure Visibility Wind Dir Wind Speed Gust Speed Precip Events Conditions
12:53 AM 72.0 °F 62.1 °F 71% 30.20 in 10.0 mi East 8.1 mph - 0.00 in   Scattered Clouds
1:53 AM 73.0 °F 62.1 °F 68% 30.19 in 10.0 mi NE 9.2 mph 20.7 mph N/A   Scattered Clouds
2:53 AM 72.0 °F 63.0 °F 73% 30.18 in 10.0 mi NE 5.8 mph - N/A   Mostly Cloudy
3:53 AM 71.1 °F 62.1 °F 73% 30.17 in 10.0 mi Calm Calm - N/A   Mostly Cloudy
4:53 AM 72.0 °F 62.1 °F 71% 30.16 in 10.0 mi Calm Calm - N/A   Mostly Cloudy
5:53 AM 72.0 °F 63.0 °F 73% 30.17 in 10.0 mi ENE 5.8 mph - N/A   Mostly Cloudy
6:53 AM 71.1 °F 63.0 °F 75% 30.19 in 10.0 mi NE 10.4 mph - 0.00 in   Mostly Cloudy
7:53 AM 72.0 °F 63.0 °F 73% 30.20 in 10.0 mi NE 13.8 mph 23.0 mph N/A   Mostly Cloudy
8:53 AM 73.0 °F 64.9 °F 76% 30.21 in 10.0 mi NE 16.1 mph 21.9 mph 0.00 in   Mostly Cloudy
9:53 AM 73.0 °F 64.0 °F 73% 30.22 in 10.0 mi ENE 6.9 mph - 0.00 in   Mostly Cloudy
10:53 AM 75.9 °F 63.0 °F 64% 30.22 in 10.0 mi ENE 12.7 mph - 0.00 in   Mostly Cloudy
11:53 AM 78.1 °F 63.0 °F 60% 30.20 in 10.0 mi NE 13.8 mph 23.0 mph N/A   Mostly Cloudy
12:53 PM 78.1 °F 64.0 °F 62% 30.19 in 10.0 mi NE 17.3 mph - N/A   Mostly Cloudy
1:53 PM 77.0 °F 63.0 °F 62% 30.16 in 10.0 mi NNE 19.6 mph 26.5 mph 0.00 in   Scattered Clouds
2:53 PM 75.9 °F 63.0 °F 64% 30.14 in 10.0 mi NNE 9.2 mph 18.4 mph N/A   Scattered Clouds
3:53 PM 75.9 °F 62.1 °F 62% 30.14 in 10.0 mi NNE 11.5 mph 19.6 mph N/A   Scattered Clouds
4:53 PM 75.0 °F 62.1 °F 64% 30.14 in 10.0 mi NE 21.9 mph 26.5 mph N/A   Scattered Clouds
5:53 PM 72.0 °F 62.1 °F 71% 30.16 in 10.0 mi NNE 9.2 mph - N/A   Scattered Clouds
6:53 PM 70.0 °F 62.1 °F 76% 30.18 in 10.0 mi NNE 5.8 mph - N/A   Scattered Clouds
7:53 PM 71.1 °F 61.0 °F 70% 30.19 in 10.0 mi NNE 5.8 mph - N/A   Scattered Clouds
8:53 PM 72.0 °F 62.1 °F 71% 30.21 in 10.0 mi NNE 6.9 mph - N/A   Mostly Cloudy
9:53 PM 71.1 °F 61.0 °F 70% 30.22 in 10.0 mi NNE 5.8 mph - N/A   Scattered Clouds
10:53 PM 72.0 °F 60.1 °F 66% 30.22 in 10.0 mi NNE 11.5 mph 20.7 mph N/A   Scattered Clouds
11:53 PM 72.0 °F 60.1 °F 66% 30.21 in 10.0 mi NE 12.7 mph - N/A   Mostly Cloudy